Shawnee, OK

10:57 AM CST on December 06, 2016 (GMT -0600)
Shawnee Municipal

Weather History for KSNL - May, 2014

Change the Weather History Date:

Thursday, May 29, 2014

  Actual Average (KOKC) Record (KOKC)
Temperature  
Mean Temperature 78 °F 73 °F  
Max Temperature 91 °F 83 °F 94 °F (1985)
Min Temperature 64 °F 63 °F 39 °F (1947)
Cooling Degree Days 12 9  
Month to date cooling degree days 165  
Year to date cooling degree days 231  
Growing Degree Days 28 (Base 50)    
Moisture  
Dew Point 67 °F    
Average Humidity 71    
Maximum Humidity 100    
Minimum Humidity 43    
Precipitation  
Precipitation 0.00 in 0.16 in 5.63 in (1970)
Month to date precipitation 4.31  
Year to date precipitation 13.41  
Sea Level Pressure  
Sea Level Pressure 29.94 in    
Wind  
Wind Speed 2 mph (NE)    
Max Wind Speed 9 mph    
Max Gust Speed 16 mph    
Visibility 10 miles    
Events      
T = Trace of Precipitation, MM = Missing Value Source: NWS Daily Summary

Daily Weather History Graph

Daily Weather History Graph

Search for Another Location

Airport or City:

Trip Planner

Search our weather history database for the weather conditions in past years. The results will help you decide how hot, cold, wet, or windy it might be!

Date:

Astronomy

May. 29, 2014 Rise Set
Actual Time 6:15 AM CDT 8:35 PM CDT
Civil Twilight 5:45 AM CDT 9:04 PM CDT
Nautical Twilight 5:10 AM CDT 9:40 PM CDT
Astronomical Twilight 4:30 AM CDT 10:20 PM CDT
Moon 7:07 AM CDT (5/29) 9:28 PM CDT (5/29)
Length of Visible Light 15h 18m
Length of Day
14h 20m
New Moon, 1% of the Moon is Illuminated
May 29
New Moon
Jun 5
First Quarter
Jun 12
Full
Jun 19
Last Quarter
Jun 27
New

Hourly Weather History & Observations

Time (CDT) Temp. Heat Index Dew Point Humidity Pressure Visibility Wind Dir Wind Speed Gust Speed Precip Events Conditions
12:15 AM 71.6 °F - 66.2 °F 83% 29.96 in 10.0 mi Calm Calm - N/A   Clear
12:35 AM 71.6 °F - 68.0 °F 88% 29.96 in 10.0 mi Calm Calm - N/A   Clear
12:55 AM 68.0 °F - 62.6 °F 83% 29.96 in 10.0 mi Calm Calm - N/A   Clear
1:15 AM 68.0 °F - 66.2 °F 94% 29.95 in 10.0 mi Calm Calm - N/A   Scattered Clouds
1:35 AM 68.0 °F - 66.2 °F 94% 29.95 in 10.0 mi Calm Calm - N/A   Clear
1:55 AM 68.0 °F - 64.4 °F 88% 29.95 in 10.0 mi Calm Calm - N/A   Clear
2:15 AM 68.0 °F - 62.6 °F 83% 29.95 in 10.0 mi Calm Calm - N/A   Clear
2:35 AM 68.0 °F - 64.4 °F 88% 29.95 in 10.0 mi Calm Calm - N/A   Scattered Clouds
2:55 AM 66.2 °F - 64.4 °F 94% 29.95 in 10.0 mi Calm Calm - N/A   Scattered Clouds
3:15 AM 66.2 °F - 64.4 °F 94% 29.95 in 10.0 mi Calm Calm - N/A   Scattered Clouds
3:35 AM 66.2 °F - 64.4 °F 94% 29.94 in 10.0 mi Calm Calm - N/A   Scattered Clouds
4:15 AM 64.4 °F - 62.6 °F 94% 29.94 in 10.0 mi Calm Calm - N/A   Scattered Clouds
4:35 AM 64.4 °F - 62.6 °F 94% 29.94 in 10.0 mi Calm Calm - N/A   Scattered Clouds
4:55 AM 64.4 °F - 62.6 °F 94% 29.95 in 7.0 mi Calm Calm - N/A   Scattered Clouds
5:15 AM 64.4 °F - 62.6 °F 94% 29.95 in 7.0 mi Calm Calm - N/A   Scattered Clouds
5:35 AM 64.4 °F - 60.8 °F 88% 29.95 in 7.0 mi Calm Calm - N/A   Clear
5:55 AM 64.4 °F - 60.8 °F 88% 29.95 in 10.0 mi Calm Calm - N/A   Clear
6:15 AM 64.4 °F - 62.6 °F 94% 29.96 in 7.0 mi Calm Calm - N/A   Clear
6:35 AM 64.4 °F - 62.6 °F 94% 29.96 in 7.0 mi Calm Calm - N/A   Clear
6:55 AM 66.2 °F - 64.4 °F 94% 29.97 in 10.0 mi Calm Calm - N/A   Clear
7:15 AM 68.0 °F - 68.0 °F 100% 29.97 in 10.0 mi Calm Calm - N/A   Clear
7:35 AM 68.0 °F - 68.0 °F 100% 29.97 in 10.0 mi Calm Calm - N/A   Clear
7:55 AM 71.6 °F - 69.8 °F 94% 29.97 in 10.0 mi Calm Calm - N/A   Clear
8:15 AM 71.6 °F - 69.8 °F 94% 29.97 in 10.0 mi Calm Calm - N/A   Clear
8:35 AM 73.4 °F - 69.8 °F 88% 29.97 in 10.0 mi NNW 3.5 mph - N/A   Scattered Clouds
8:55 AM 77.0 °F - 69.8 °F 78% 29.97 in 10.0 mi Calm Calm - N/A   Clear
9:15 AM 78.8 °F - 69.8 °F 74% 29.98 in 10.0 mi NNE 3.5 mph - N/A   Clear
9:35 AM 78.8 °F - 68.0 °F 69% 29.98 in 10.0 mi Calm Calm - N/A   Clear
9:55 AM 80.6 °F 83.2 °F 68.0 °F 65% 29.98 in 10.0 mi NNE 3.5 mph - N/A   Clear
10:15 AM 80.6 °F 83.2 °F 68.0 °F 65% 29.98 in 10.0 mi North 4.6 mph - N/A   Clear
10:35 AM 80.6 °F 83.2 °F 68.0 °F 65% 29.97 in 10.0 mi North 4.6 mph - N/A   Clear
10:55 AM 82.4 °F 85.4 °F 68.0 °F 62% 29.97 in 10.0 mi NNE 4.6 mph - N/A   Clear
11:15 AM 82.4 °F 86.3 °F 69.8 °F 66% 29.97 in 10.0 mi North 4.6 mph - N/A   Clear
11:35 AM 82.4 °F 86.3 °F 69.8 °F 66% 29.97 in 10.0 mi North 6.9 mph - N/A   Scattered Clouds
11:55 AM 82.4 °F 85.4 °F 68.0 °F 62% 29.97 in 10.0 mi North 5.8 mph - N/A   Scattered Clouds
12:15 PM 82.4 °F 85.4 °F 68.0 °F 62% 29.96 in 10.0 mi NNE 6.9 mph - N/A   Scattered Clouds
12:35 PM 86.0 °F 90.4 °F 69.8 °F 58% 29.97 in 10.0 mi ENE 4.6 mph - N/A   Mostly Cloudy
1:15 PM 87.8 °F 92.6 °F 69.8 °F 55% 29.96 in 10.0 mi NNE 5.8 mph - N/A   Scattered Clouds
1:35 PM 87.8 °F 92.6 °F 69.8 °F 55% 29.95 in 10.0 mi NNE 8.1 mph - N/A   Mostly Cloudy
1:55 PM 87.8 °F 92.6 °F 69.8 °F 55% 29.94 in 10.0 mi NNE 5.8 mph - N/A   Scattered Clouds
2:15 PM 87.8 °F 92.6 °F 69.8 °F 55% 29.94 in 10.0 mi NNE 4.6 mph - N/A   Mostly Cloudy
2:55 PM 91.4 °F 96.8 °F 69.8 °F 49% 29.93 in 10.0 mi NE 8.1 mph - N/A   Scattered Clouds
3:15 PM 91.4 °F 95.4 °F 68.0 °F 46% 29.92 in 10.0 mi NNE 6.9 mph - N/A   Clear
3:35 PM 91.4 °F 95.4 °F 68.0 °F 46% 29.91 in 10.0 mi NE 5.8 mph - N/A   Clear
3:55 PM 91.4 °F 95.4 °F 68.0 °F 46% 29.91 in 10.0 mi NNE 9.2 mph - N/A   Clear
4:15 PM 91.4 °F 95.4 °F 68.0 °F 46% 29.90 in 10.0 mi ENE 6.9 mph 16.1 mph N/A   Clear
4:35 PM 91.4 °F 94.0 °F 66.2 °F 43% 29.89 in 10.0 mi NE 8.1 mph - N/A   Clear
4:55 PM 91.4 °F 94.0 °F 66.2 °F 43% 29.89 in 10.0 mi NE 8.1 mph - N/A   Clear
5:15 PM 91.4 °F 94.0 °F 66.2 °F 43% 29.89 in 10.0 mi NE 4.6 mph - N/A   Scattered Clouds
5:35 PM 91.4 °F 95.4 °F 68.0 °F 46% 29.88 in 10.0 mi NE 5.8 mph - N/A   Scattered Clouds
5:55 PM 91.4 °F 94.0 °F 66.2 °F 43% 29.87 in 10.0 mi NE 5.8 mph - N/A   Scattered Clouds
6:15 PM 91.4 °F 94.0 °F 66.2 °F 43% 29.87 in 10.0 mi ENE 8.1 mph - N/A   Clear
6:35 PM 91.4 °F 94.0 °F 66.2 °F 43% 29.87 in 10.0 mi NE 8.1 mph - N/A   Clear
6:55 PM 91.4 °F 95.4 °F 68.0 °F 46% 29.87 in 10.0 mi NE 6.9 mph - N/A   Scattered Clouds
7:15 PM 89.6 °F 93.4 °F 68.0 °F 49% 29.87 in 10.0 mi ENE 8.1 mph - N/A   Clear
7:35 PM 87.8 °F 92.6 °F 69.8 °F 55% 29.88 in 10.0 mi East 9.2 mph - N/A   Clear
7:55 PM 86.0 °F 90.4 °F 69.8 °F 58% 29.88 in 10.0 mi East 8.1 mph - N/A   Clear
8:15 PM 82.4 °F 85.4 °F 68.0 °F 62% 29.89 in 10.0 mi East 6.9 mph - N/A   Clear
8:55 PM 80.6 °F 83.2 °F 68.0 °F 65% 29.90 in 10.0 mi East 4.6 mph - N/A   Clear
9:15 PM 78.8 °F - 68.0 °F 69% 29.91 in 10.0 mi East 4.6 mph - N/A   Clear
9:35 PM 78.8 °F - 68.0 °F 69% 29.92 in 10.0 mi East 4.6 mph - N/A   Scattered Clouds
9:55 PM 78.8 °F - 68.0 °F 69% 29.92 in 10.0 mi East 4.6 mph - N/A   Scattered Clouds
10:15 PM 78.8 °F - 69.8 °F 74% 29.93 in 10.0 mi East 3.5 mph - N/A   Clear
10:35 PM 77.0 °F - 68.0 °F 74% 29.93 in 10.0 mi ENE 3.5 mph - N/A   Clear
10:55 PM 77.0 °F - 69.8 °F 78% 29.94 in 10.0 mi East 6.9 mph - N/A   Clear
11:15 PM 77.0 °F - 68.0 °F 74% 29.94 in 10.0 mi ESE 4.6 mph - N/A   Clear
11:35 PM 77.0 °F - 69.8 °F 78% 29.94 in 10.0 mi East 5.8 mph - N/A   Clear
11:55 PM 77.0 °F - 69.8 °F 78% 29.94 in 10.0 mi East 4.6 mph - N/A   Clear